Tracking 31027 objects as of 19-Jul-2025
HD Live streaming from Space Station
objects crossing your sky now

TITAN 3C TRANSTAGE R/B

Track TITAN 3C TRANSTAGE R/B now!


NORAD ID: 2770
Int'l Code: 1967-040F
Perigee: 8,049.1 km
Apogee: 111,668.6 km
Inclination: 17.9 °
Period: 2,827.1 minutes
Semi major axis: 66229 km
RCS: 3.1623 m2 (large)
Launch date: April 28, 1967
Source: United States (US)
Launch site: AIR FORCE EASTERN TEST RANGE (AFETR)

Note: This is a ROCKET BODY
Your satellite tracking list
DEWASAT-2
Track 1 satellite(s)




NASA's NSSDC Master Catalog

Two Line Element Set (TLE):
1 02770U 67040F   25200.52094530 -.00000041  00000-0  00000-0 0  9996
2 02770  17.9404 216.7713 7822715 337.1894 359.8008  0.50935682 21618
Source of the keplerian elements: AFSPC